map of LFBC home
LFBC - Airport
Location
City:  Cazaux, Aquitaine, France
ICAO:LFBC

Details
Type:Airport (Aerodrome, Airfield)
Use:Military
Latitude:4432'06"N (44.534883)
Longitude:107'53"W (-1.131449)
Elevation:84 ft (26 m)
Variation:0.21W (WMM2015 magnetic declination)
0.13 annual change
Runways:1
Longest:7900 × 148 ft (2408 × 45 m)

Time
Time Zone:UTC+1 (DST+2)
Local Time:

Weather
METAR:LFBC 171300Z AUTO 32007KT 290V360 9999 BKN027 25/18 Q1021 NOSIG
TAF:LFBC 170800Z 1709/1809 18004KT 9999 FEW010
TEMPO 1722/1808 BKN004 PROB40
TEMPO 1800/1806 0200 BCFG

Related Locations
Nearby:
Farthest:CHT: 12203 mi / 19638 km
Waitangi [Tuuta], CIT, NZ

Find:

   beyond  
but within

Other Information
Maps:
NOTAMs:
Links:
Sources:

  
flag of France
flag of Aquitaine
  

Sectional Chart

Flight Planning
at skyvector.com

Satellite Image

Google Maps Satellite view

 

Copyright © 2004-2017 Karl L. Swartz. All rights reserved.
The Great Circle Mapper name and logo are trademarks of the Great Circle Mapper.
All other trademarks mentioned herein belong to their respective owners.
Please see credits for attibutions and further copyright information.

  Follow gcmap on Facebook Follow gcmap on Twitter Follow gcmap on Google+ GCmap on LinkedIn

hCard Microformat

Geo Microformat